Aérodrome :
LOGIN :

S'inscrire | Disclaimer

   EN    FR    IT 

 










Légende :    VFR   VFR Marginal   IFR   IFR Intensif   IFR Très Intensif
Visi : 
Plafond : 
>= 8 km
>= 3000ft
5 à 8 km
1000 à 3000 ft
1500m à 5 km
500 à 1000 ft
800 à 1500m
200 à 500 ft
< 800m
< 200 ft
Symboles :   Orages  Brouillard  Fortes neiges  Fortes précipitations  Vent > 20 kt
SIGMETs :   Divers  Orages  Givrage  Turbulence  Onde Orograph.  Cendres Volcan.







- Altitude de l'aérodrome : 1649 ft
- Code IATA : HHN


EDFH - Frankfurt-Hahn Rhineland-Palatinate

DERNIER METAR :
  • 251950Z 25007KT 9999 FEW040 10/05 Q1014

METARs EXPIRÉS :
  • 251920Z 26009KT 9999 FEW037 10/05 Q1013
  • 251850Z 26007KT CAVOK 10/06 Q1013
  • 251820Z 26007KT CAVOK 11/06 Q1013
  • 251750Z 26008KT 230V290 9999 FEW042 11/06 Q1013
  • 251720Z 26010KT 9999 SCT040 11/07 Q1013

TAF TAF EDFH
Valide du 25 à 18h jusqu'au 26 à 18h UTC


251700Z 2518/2618 25010KT 9999 BKN030
PROB30
TEMPO 2518/2520 SHRA BKN020TCU
BECMG 2607/2609 27015G25KT
PROB30
TEMPO 2609/2615 SHRA SCT030TCU
BECMG 2616/2618 26008KT
Pas de NOTAMs connus pour ce terrain.



MET'MAP, la Météo Aéronautique d'un coup d'oeil ! - Copyright ORBIFLY Décembre 2007 - Disclaimer

ORBIFLY MET'MAP TEAM :

Programmation & Développement : Alexandra Zaïnal
Conception & Développement : Baudouin d'Aumeries
Co-Programmation & Développement : Marc-Olivier Méhu
Soutien technique & logistique : Manuel Goepfert

Contact : metmap@orbifly.com




SOURCES & CREDITS :

   NOAA